Location: Grand Rapids
(42.9630°N, 85.6680°W)
Time: 02:09:06
(UTC-04:00)

Vanguard 1 - All Passes

Search period start: 30 May 2024 00:00
Search period end: 09 June 2024 00:00
Orbit: 652 x 3825 km, 34.2° (Epoch: 29 May)

Date Brightness Start Highest point End Pass type
(mag) Time Alt. Az. Time Alt. Az. Time Alt. Az.
30 May - 02:09:23 10° W 02:21:41 32° SSW 02:39:19 10° SSE visible
30 May - 04:41:03 10° WSW 04:45:00 11° SW 04:49:07 10° SW visible
30 May - 19:31:02 10° SSW 19:36:22 32° SSE 19:44:50 10° E daylight
30 May - 21:48:52 10° WSW 21:56:33 54° S 22:10:43 10° ESE visible
31 May - 00:08:17 10° W 00:18:39 46° SSW 00:36:23 10° SE visible
31 May - 02:30:20 10° W 02:41:54 26° SSW 02:57:39 10° SSE visible
31 May - 19:50:33 10° SW 19:56:09 38° SSE 20:05:27 10° E daylight
31 May - 22:08:47 10° WSW 22:16:40 53° S 22:31:10 10° ESE visible
01 Jun - 00:28:31 10° W 00:38:55 40° SSW 00:56:04 10° SE visible
01 Jun - 02:51:55 10° WSW 03:02:06 20° SW 03:15:09 10° S visible
01 Jun - 17:54:15 10° S 17:57:06 14° SE 18:00:32 10° ESE daylight
01 Jun - 20:10:12 10° SW 20:16:02 43° SSE 20:25:59 10° E daylight
01 Jun - 22:28:46 10° WSW 22:36:50 50° S 22:51:29 10° ESE visible
02 Jun - 00:48:55 10° W 00:59:11 34° SSW 01:15:23 10° SSE visible
02 Jun - 03:14:52 10° WSW 03:22:18 14° SW 03:31:03 10° SSW visible
02 Jun - 18:12:56 10° SSW 18:16:42 20° SSE 18:21:40 10° ESE daylight
02 Jun - 20:29:58 10° WSW 20:35:59 46° S 20:46:26 10° ESE daylight
02 Jun - 22:48:48 10° W 22:57:00 46° S 23:11:38 10° SE visible
03 Jun - 01:09:33 10° W 01:19:26 28° SSW 01:34:12 10° SSE visible
03 Jun - 18:32:08 10° SSW 18:36:23 26° SSE 18:42:22 10° E daylight
03 Jun - 20:49:49 10° WSW 20:56:00 47° S 21:06:51 10° ESE daylight
03 Jun - 23:08:55 10° W 23:17:12 40° SSW 23:31:32 10° SE visible
04 Jun - 01:30:36 10° WSW 01:39:41 22° SSW 01:52:22 10° S visible
04 Jun - 18:51:36 10° SW 18:56:09 32° SSE 19:02:53 10° E daylight
04 Jun - 21:09:43 10° WSW 21:16:03 46° S 21:27:11 10° ESE daylight
04 Jun - 23:29:09 10° W 23:37:24 35° SSW 23:51:08 10° SE visible
05 Jun - 01:52:29 10° WSW 01:59:57 16° SSW 02:09:29 10° S visible
05 Jun - 16:55:41 10° SSE 16:57:10 11° SE 16:58:44 10° SE daylight
05 Jun - 19:11:15 10° SW 19:16:01 36° SSE 19:23:18 10° ESE daylight
05 Jun - 21:29:41 10° WSW 21:36:08 43° S 21:47:23 10° ESE daylight
05 Jun - 23:49:34 10° WSW 23:57:38 29° SSW 00:10:20 10° SSE visible
06 Jun - 02:17:09 10° SW 02:20:12 11° SW 02:23:34 10° SSW visible
06 Jun - 17:13:57 10° S 17:16:51 16° SSE 17:20:11 10° ESE daylight
06 Jun - 19:31:01 10° WSW 19:35:55 39° S 19:43:38 10° ESE daylight
06 Jun - 21:49:43 10° WSW 21:56:14 39° S 22:07:24 10° SE visible
07 Jun - 00:10:18 10° WSW 00:17:52 23° SSW 00:28:59 10° SSE visible
07 Jun - 17:33:04 10° SSW 17:36:35 22° SSE 17:40:52 10° ESE daylight
07 Jun - 19:50:51 10° WSW 19:55:53 40° S 20:03:54 10° ESE daylight
07 Jun - 22:09:51 10° WSW 22:16:22 34° SSW 22:27:11 10° SE visible
08 Jun - 00:31:38 10° WSW 00:38:07 17° SSW 00:46:50 10° S visible
08 Jun - 17:52:31 10° SW 17:56:23 27° SSE 18:01:17 10° ESE daylight
08 Jun - 20:10:46 10° WSW 20:15:53 39° S 20:24:05 10° ESE daylight
08 Jun - 22:30:07 10° WSW 22:36:31 28° SSW 22:46:39 10° SE visible
